Weather History for Molokai, HI

Change the Weather History Date:

Wednesday, May 22, 2013

  Actual Average Record
Temperature  
Mean Temperature 73 °F -  
Max Temperature 82 °F 81 °F 89 °F (1982)
Min Temperature 64 °F 67 °F 56 °F (1986)
Cooling Degree Days 8    
Growing Degree Days 23 (Base 50)    
Moisture  
Dew Point 67 °F    
Average Humidity 81    
Maximum Humidity 100    
Minimum Humidity 58    
Precipitation  
Precipitation 0.00 in - - ()
Sea Level Pressure  
Sea Level Pressure 30.02 in    
Wind  
Wind Speed 3 mph (NE)    
Max Wind Speed 12 mph    
Max Gust Speed -    
Visibility 10 miles    
Events      
Averages and records for this station are not official NWS values.
T = Trace of Precipitation, MM = Missing Value Source: NWS Daily Summary

Daily Weather History Graph

Daily Weather History Graph

Search for Another Location

Airport:

Trip Planner

Search our weather history database for the weather conditions in past years. The results will help you decide how hot, cold, wet, or windy it might be!

Date:

Astronomy

May. 22, 2013 Rise Set
Actual Time 5:47 AM HST 7:02 PM HST
Civil Twilight 5:23 AM HST 7:26 PM HST
Nautical Twilight 4:55 AM HST 7:55 PM HST
Astronomical Twilight 4:25 AM HST 8:25 PM HST
Moon 4:51 PM HST (5/22) 3:40 AM HST (5/22)
Length of Visible Light 14h 02m
Length of Day
13h 14m
Waxing Gibbous, 93% of the Moon is Illuminated
May 22
Waxing Gibbous
May 24
Full
May 31
Last Quarter
Jun 8
New
Jun 16
First Quarter

Hourly Weather History & Observations

Time (HST) Temp. Heat Index Dew Point Humidity Pressure Visibility Wind Dir Wind Speed Gust Speed Precip Events Conditions
12:54 AM 66.0 °F - 63.0 °F 90% 30.01 in 10.0 mi Calm Calm - N/A   Scattered Clouds
1:54 AM 66.0 °F - 63.0 °F 90% 30.00 in 10.0 mi Calm Calm - N/A   Partly Cloudy
2:54 AM 64.0 °F - 64.0 °F 100% 29.99 in 10.0 mi Calm Calm - N/A   Scattered Clouds
3:54 AM 64.9 °F - 64.9 °F 100% 29.98 in 10.0 mi Calm Calm - N/A   Clear
4:54 AM 64.0 °F - 63.0 °F 96% 29.99 in 10.0 mi ENE 4.6 mph - N/A   Clear
5:54 AM 66.0 °F - 64.0 °F 93% 30.00 in 10.0 mi ENE 3.5 mph - N/A   Partly Cloudy
6:54 AM 70.0 °F - 66.0 °F 87% 30.01 in 10.0 mi ENE 3.5 mph - N/A   Clear
7:54 AM 75.0 °F - 68.0 °F 79% 30.02 in 10.0 mi SE 5.8 mph - N/A   Clear
8:54 AM 78.1 °F - 66.0 °F 66% 30.03 in 10.0 mi East 5.8 mph - N/A   Scattered Clouds
9:54 AM 79.0 °F - 64.0 °F 60% 30.04 in 10.0 mi SE 6.9 mph - N/A   Partly Cloudy
10:54 AM 82.9 °F 85.4 °F 66.9 °F 58% 30.04 in 10.0 mi Variable 4.6 mph - N/A   Partly Cloudy
11:54 AM 82.0 °F 84.9 °F 68.0 °F 62% 30.03 in 10.0 mi NNE 9.2 mph - N/A   Partly Cloudy
12:54 PM 81.0 °F 84.4 °F 70.0 °F 69% 30.03 in 10.0 mi North 11.5 mph - N/A   Scattered Clouds
1:54 PM 77.0 °F - 66.9 °F 71% 30.02 in 10.0 mi North 10.4 mph - N/A   Mostly Cloudy
2:54 PM 81.0 °F 82.7 °F 64.9 °F 58% 30.00 in 10.0 mi North 10.4 mph - N/A   Mostly Cloudy
3:54 PM 81.0 °F 83.8 °F 68.0 °F 65% 30.00 in 10.0 mi NNW 9.2 mph - N/A   Partly Cloudy
4:54 PM 78.1 °F - 68.0 °F 71% 30.00 in 10.0 mi NE 6.9 mph - N/A   Mostly Cloudy
5:29 PM 78.8 °F - 68.0 °F 69% 29.99 in 10.0 mi Calm Calm - N/A   Overcast
5:54 PM 77.0 °F - 69.1 °F 76% 30.01 in 10.0 mi SE 5.8 mph - N/A   Mostly Cloudy
6:54 PM 75.9 °F - 69.1 °F 79% 30.04 in 10.0 mi Calm Calm - N/A   Scattered Clouds
7:01 PM 75.2 °F - 69.8 °F 83% 30.03 in 10.0 mi Calm Calm - N/A   Overcast
7:33 PM 75.2 °F - 71.6 °F 89% 30.04 in 10.0 mi Calm Calm - N/A   Mostly Cloudy
7:54 PM 73.9 °F - 71.1 °F 91% 30.06 in 10.0 mi Calm Calm - N/A   Overcast
8:54 PM 73.0 °F - 71.1 °F 93% 30.06 in 8.0 mi NNE 3.5 mph - N/A   Mostly Cloudy
9:54 PM 72.0 °F - 72.0 °F 100% 30.07 in 7.0 mi North 3.5 mph - N/A   Clear
10:54 PM 72.0 °F - 71.1 °F 97% 30.08 in 8.0 mi NNE 4.6 mph - N/A   Clear
11:54 PM 69.1 °F - 68.0 °F 96% 30.07 in 8.0 mi ENE 5.8 mph - N/A   Clear